CAS-6 (TO-108)

Last updated on Fri Aug 12 2022 01:03:06 GMT+0100 (British Summer Time)

1 44881U 19093C 22223.47939872 .00000304 00000+0 45112-4 0 9990 2 44881 97.8914 301.8970 0015343 12.5415 347.6186 14.81779528142922
UTC large
Height (km)
Speed (km/s)
/
Latitude / Longitude
Inclination (degrees)
Orbital Period (minutes)
Azimuth
Elevation
Range (km)
Doppler Factor

Next 0 passes for location: London (51.5072 / 0.1276)

Sorry there are no passes over London.